Snowfall_Accumulation
1.5 4.1 8.7 4.3 2.6 3.2 4.1 4.6 3.8 2.6 1.7 1.9 2.5 2.1 0.9 0.8 0.8 0.7 0.5 0.5 0.6 0.4 0.3 0.3 0.3 0.2 0.2 0.2 0.3 0.3 0.4 0.4 0.4 0.5 0.3 0.2 0.3 0.2 0.2 0.2 0.3 0.1 0.1 0.0
4.4 7.0 2.7 1.5 2.1 3.5 5.1 6.0 4.2 2.7 1.4 2.5 3.5 2.6 1.7 1.3 1.5 1.4 1.2 1.2 0.8 0.4 0.3 0.3 0.3 0.4 0.3 0.3 0.4 0.3 0.4 0.5 0.6 0.5 0.4 0.4 0.5 0.2 0.2 0.2 0.2 0.2 0.2 0.0
7.9 4.1 1.1 2.1 3.6 5.6 5.9 5.6 4.0 4.1 3.0 1.9 3.3 5.4 2.9 1.9 1.3 1.4 1.4 1.3 1.3 0.9 0.6 0.4 0.4 0.5 0.4 0.4 0.5 0.5 0.4 0.5 0.6 0.5 0.5 0.4 0.4 0.3 0.2 0.3 0.3 0.2 0.3 0.2
3.9 1.7 1.6 3.5 4.9 5.4 7.6 2.6 2.2 3.5 5.5 7.9 6.1 11.4 5.3 3.0 2.0 1.8 2.3 2.5 2.2 1.4 0.9 0.6 0.5 0.4 0.5 0.4 0.4 0.5 0.5 0.5 0.4 0.5 0.5 0.5 0.5 0.5 0.5 0.5 0.5 0.4 0.5 0.5
5.7 2.0 2.1 5.3 4.0 3.9 4.5 1.9 2.3 3.5 7.4 9.8 5.8 9.9 7.7 2.8 4.1 3.4 3.3 3.4 3.6 2.5 1.4 1.0 0.7 0.7 0.5 0.4 0.4 0.4 0.5 0.5 0.5 0.4 0.6 0.8 0.7 0.6 0.7 0.6 0.6 0.6 0.5 0.6
3.4 1.6 2.5 2.8 1.4 1.8 2.8 2.9 3.4 5.3 11.9 19.6 8.2 8.9 9.1 7.7 7.6 4.7 3.2 3.4 3.3 3.1 2.0 1.5 1.2 0.8 0.6 0.6 0.6 0.4 0.6 0.6 0.6 0.5 0.5 0.8 1.1 0.9 0.9 0.9 0.9 0.7 0.7 0.5
9.2 4.3 2.3 2.4 5.2 4.3 5.5 18.5 29.0 30.3 29.0 17.4 5.0 7.1 10.1 7.5 5.6 5.3 4.9 4.5 3.9 3.4 3.4 2.3 2.0 1.6 1.2 1.2 1.3 1.3 1.2 1.4 1.3 1.0 1.0 1.2 1.3 1.3 1.3 1.1 1.2 0.9 0.8 0.7
12.6 13.3 3.3 2.4 4.8 7.8 8.0 13.9 22.2 20.7 14.7 8.4 5.5 8.4 9.6 5.5 4.9 4.5 4.5 4.3 3.8 4.0 3.6 3.8 2.7 2.3 1.6 1.6 1.5 1.4 1.4 1.5 1.7 1.3 1.1 0.9 1.1 1.3 1.0 1.1 1.1 1.0 0.7 0.7
10.9 10.3 1.9 1.7 2.2 4.4 10.9 12.8 8.8 16.4 12.1 9.3 8.4 7.5 6.1 2.8 2.8 3.4 3.3 3.3 4.0 4.5 4.3 3.8 3.8 3.7 2.6 2.5 1.7 1.7 1.7 1.7 1.7 1.9 0.9 1.0 0.9 1.0 1.1 1.1 1.2 0.8 0.8 0.8
8.2 11.3 4.2 1.4 2.5 3.2 5.1 5.9 11.7 20.4 18.1 12.7 8.2 7.4 9.0 6.6 5.5 4.5 3.7 4.2 4.4 4.6 4.9 4.8 4.6 4.9 3.8 2.8 2.6 1.9 1.6 1.7 1.7 1.8 2.0 1.8 1.7 1.1 1.1 1.0 1.1 1.2 0.7 0.7
5.6 11.3 9.7 3.8 7.6 9.1 7.2 9.9 13.6 16.0 14.3 14.7 10.9 9.9 8.8 7.4 6.1 5.6 4.9 4.5 5.0 5.2 5.4 5.9 5.6 5.3 4.3 2.6 3.0 2.4 2.0 1.8 1.6 1.5 1.8 1.9 1.9 1.8 1.2 1.3 1.4 1.0 1.1 0.7
4.5 8.8 12.4 6.1 2.6 2.6 4.4 7.8 11.8 18.7 14.9 11.3 11.7 10.5 5.2 4.3 4.3 4.6 4.9 5.0 4.8 4.7 4.9 5.3 5.3 5.1 4.6 4.3 3.2 2.4 2.6 2.4 1.9 1.7 1.8 1.8 2.1 1.8 1.8 1.5 1.4 1.3 1.1 1.0
7.8 12.3 14.7 7.7 4.7 2.9 5.3 5.6 7.6 11.9 16.3 13.0 12.8 10.5 4.4 3.3 3.1 3.9 4.5 5.0 4.8 4.6 4.3 4.2 4.3 4.5 5.0 5.0 3.4 3.1 2.7 2.7 2.1 1.9 1.9 1.8 2.0 1.8 1.8 1.8 1.5 1.3 1.3 1.2
7.5 12.1 11.4 10.8 8.8 8.1 7.9 6.4 6.7 14.4 20.5 12.6 9.3 8.8 6.2 5.1 4.9 4.9 4.8 4.9 5.1 5.0 4.7 4.6 5.1 5.5 5.1 4.9 4.6 3.7 3.6 3.6 3.0 1.9 1.8 1.8 1.7 1.8 1.6 1.6 1.5 1.6 1.4 1.4
5.0 9.7 6.1 4.2 3.2 4.4 5.5 5.6 6.2 10.8 11.2 12.3 8.5 7.5 7.2 6.8 6.6 6.1 5.4 4.9 4.6 4.6 4.7 4.8 5.2 5.7 5.1 4.9 4.4 4.1 3.2 3.1 2.8 2.6 2.1 1.7 1.4 1.6 1.6 1.7 1.6 1.4 1.5 1.3
4.0 7.2 5.2 5.0 2.5 3.0 4.7 4.0 4.3 5.6 6.7 8.1 6.8 7.4 6.3 5.9 4.7 4.9 4.9 4.7 5.0 5.8 5.4 5.3 5.3 5.3 4.7 5.3 5.1 4.4 3.5 3.0 2.7 2.9 2.9 2.2 1.5 1.4 1.3 1.5 1.7 1.6 1.6 1.6
5.1 6.3 10.0 6.9 3.4 5.5 7.9 6.0 5.6 6.3 6.7 7.3 9.3 8.3 5.7 5.2 5.4 5.9 5.2 5.0 5.2 5.7 5.8 5.7 5.2 5.8 5.6 5.5 5.4 5.4 5.1 3.8 3.1 2.8 3.0 2.6 2.5 2.0 1.4 1.8 1.8 2.1 1.9 2.0
5.3 6.7 11.8 9.6 6.3 8.9 7.0 4.6 4.9 5.4 6.4 6.4 7.1 6.8 5.8 5.9 6.0 5.5 5.2 5.5 5.5 5.5 5.7 5.7 5.7 5.3 5.2 5.3 5.0 5.2 5.1 3.9 3.6 3.3 2.9 2.8 2.8 2.6 2.5 2.5 2.5 2.2 2.2 2.1
3.5 6.9 14.2 12.6 8.8 5.9 3.9 3.3 5.3 6.1 7.2 6.6 6.5 5.8 5.2 4.5 4.0 4.4 4.3 4.7 5.8 6.0 6.1 6.1 6.1 6.1 4.9 4.8 4.8 4.9 4.8 4.5 3.6 3.6 3.8 3.3 3.3 3.3 2.7 3.0 2.9 2.7 2.5 2.5
2.8 5.6 13.3 13.4 11.2 7.2 5.0 2.9 3.2 4.3 7.5 4.8 5.0 5.7 5.3 4.7 6.0 6.7 5.2 5.2 5.2 5.3 5.4 5.3 5.3 5.4 4.1 4.3 4.6 4.5 4.7 4.5 4.9 4.6 4.1 3.9 3.5 3.8 3.5 3.1 3.4 3.3 3.5 3.6
5.1 8.1 11.7 10.6 10.7 6.4 4.6 2.6 1.9 6.5 11.3 5.0 5.4 6.0 5.9 7.1 8.6 7.7 6.2 5.8 5.8 5.5 5.4 4.8 4.5 5.1 5.1 5.5 4.8 5.1 4.9 5.3 6.4 4.7 3.6 3.6 3.6 4.2 4.2 3.5 3.5 4.3 4.1 4.1
5.2 6.8 7.2 7.8 10.8 8.4 4.2 3.2 6.4 8.7 5.7 5.2 5.2 5.5 6.3 6.4 5.9 6.0 6.0 6.0 5.7 5.6 5.3 4.9 4.9 5.1 5.1 5.6 6.0 6.4 6.6 5.9 5.6 4.9 4.4 4.4 4.5 4.5 4.0 3.9 4.2 4.5 4.6 4.7
5.5 7.1 8.0 8.2 8.8 7.7 6.0 6.5 6.7 5.9 5.7 5.1 5.4 5.4 5.6 5.6 5.4 5.5 5.7 5.7 5.6 5.5 5.3 5.2 5.0 4.5 4.1 4.6 5.0 6.5 7.1 7.0 6.4 5.4 5.0 4.7 5.1 4.7 4.9 4.3 4.7 4.3 4.2 4.2
4.5 3.6 5.3 6.4 5.8 5.4 5.1 4.7 4.6 4.9 5.5 5.0 4.9 4.9 4.8 5.3 5.0 4.9 4.9 4.9 5.0 4.9 5.1 5.3 5.3 4.6 4.1 4.4 5.0 6.0 6.4 6.7 7.0 7.0 6.6 6.1 5.4 6.0 5.3 5.3 5.1 5.1 5.3 5.2
4.3 3.7 4.3 5.1 4.2 3.9 3.9 4.0 4.5 4.2 3.7 3.5 3.3 3.5 4.1 4.6 4.6 4.6 4.8 4.9 4.9 4.9 5.0 5.1 5.3 4.9 4.6 4.2 4.9 5.1 5.5 6.0 6.5 6.7 6.8 6.5 6.2 6.5 6.6 6.2 5.9 6.2 6.7 6.8
5.0 5.8 6.9 6.5 4.7 5.6 4.9 3.6 3.4 3.4 3.2 3.1 3.1 3.0 3.0 3.7 4.3 4.1 4.3 4.5 4.8 5.1 4.8 4.9 4.6 4.4 4.5 4.3 4.5 4.7 4.9 5.4 6.1 6.2 5.8 6.3 6.6 6.1 6.2 6.4 6.6 6.0 6.0 6.0